Regional Weather Roundup
Issued by NWS Boston, MA

Current Version | Previous Version | Text Only | Print | Product List | Glossary Off
Versions: 1 2 3 4 5 6 7 8 9 10 11 12 13 14 15 16 17 18 19 20 21 22 23 24 25 26 27 28 29 30 31 32 33 34 35 36 37 38 39 40 41 42 43 44 45 46 47 48 49 50
043 ASUS41 KBOX 191710 RWRBOX REGIONAL WEATHER ROUNDUP NATIONAL WEATHER SERVICE BOSTON/NORTON MA 100 PM EDT SUN AUG 19 2018 NOTE: "FAIR" INDICATES FEW OR NO CLOUDS BELOW 12,000 FEET WITH NO SIGNIFICANT WEATHER AND/OR OBSTRUCTIONS TO VISIBILITY. MAZALL-191800- EASTERN MASSACHUSETTS CITY SKY/WX TMP DP RH WIND PRES REMARKS BOSTON PTSUNNY 72 61 68 E20 30.04F BEVERLY PTSUNNY 69 60 73 NE15G21 30.04F LAWRENCE FAIR 74 60 61 NE15 30.07F BEDFORD PTSUNNY 74 58 57 NE13 30.03F BLUE HILL N/A 67 60 78 NE14G23 30.04S NORWOOD PTSUNNY 73 61 65 NE15G22 30.03S MARSHFIELD CLOUDY 70 61 73 NE12G20 30.03F PLYMOUTH CLOUDY 69 61 75 NE20G26 30.02F TAUNTON FAIR 73 59 61 NE13G24 30.01S NEW BEDFORD CLOUDY 72 62 71 NE13G23 29.99F $$ MAZALL-191800- CAPE COD AND THE ISLANDS CITY SKY/WX TMP DP RH WIND PRES REMARKS FALMOUTH CLOUDY 68 61 77 NE18G24 30.01R HYANNIS CLOUDY 70 62 76 NE14G24 29.98F CHATHAM CLOUDY 69 62 78 NE9G17 30.00S PROVINCETOWN CLOUDY 67 62 84 NE16 30.02F NANTUCKET CLOUDY 70 63 78 NE20 29.97S MARTHAS VNYRD CLOUDY 71 63 75 NE17G24 29.98S $$ MAZALL-191800- CENTRAL AND WESTERN MASSACHUSETTS CITY SKY/WX TMP DP RH WIND PRES REMARKS WORCESTER FAIR 70 56 61 NE14G21 30.05F FITCHBURG FAIR 73 58 59 VRB7 30.05F ORANGE FAIR 76 55 48 NE9G20 30.06S SPRINGFIELD MOSUNNY 76 55 47 E9G16 30.01F WESTFIELD FAIR 76 57 51 NE12G18 30.02F NORTH ADAMS PTSUNNY 74 56 53 VRB7 30.04S PITTSFIELD FAIR 73 53 49 E10G22 30.04F $$ RIZALL-191800- RHODE ISLAND CITY SKY/WX TMP DP RH WIND PRES REMARKS PROVIDENCE FAIR 75 60 59 NE20 30.01F NEWPORT PTSUNNY 73 61 65 NE14 N/A BLOCK ISLAND CLOUDY 70 63 78 NE10G24 29.99F SMITHFIELD FAIR 72 60 66 NE14G20 30.03F WESTERLY PTSUNNY 74 62 66 NE12G20 30.00S $$ CTZALL-191800- CONNECTICUT CITY SKY/WX TMP DP RH WIND PRES REMARKS BRADLEY INTL PTSUNNY 78 57 48 NE15 30.01F HARTFORD CLOUDY 76 58 53 NE9 30.00F BRIDGEPORT CLOUDY 74 63 68 E10 29.99S DANBURY CLOUDY 71 61 70 NE9 30.02S GROTON CLOUDY 76 61 59 NE12G22 29.97F NEW HAVEN CLOUDY 76 63 64 NE9 29.99F CHESTER CLOUDY 75 61 60 NE8 30.00S MERIDEN CLOUDY 75 60 59 NE8 30.00F WILLIMANTIC PTSUNNY 76 59 55 E13G22 30.00F OXFORD PTSUNNY 71 60 68 NE10 30.03S $$ MEZ002-015-021-024-NHZ003-005-008-011-012-014-VTZ005-008-191800- NORTHERN NEW ENGLAND CITY SKY/WX TMP DP RH WIND PRES REMARKS PORTLAND ME FAIR 74 58 57 E8 30.07S BANGOR ME FAIR 75 57 53 NE16 30.09S CONCORD NH FAIR 78 56 46 E9 30.06S MANCHESTER NH PTSUNNY 77 56 48 NE10 30.04F NASHUA NH FAIR 76 58 53 E7G17 30.05F PORTSMOUTH NH PTSUNNY 71 58 62 E12 30.06 JAFFREY NH FAIR 73 56 54 VRB5 30.08F KEENE NH NOT AVBL BURLINGTON VT PTSUNNY 79 55 43 VRB3 30.06F MT. WASHINGTON MOSUNNY 50 45 81 E3 N/A $$ NYZ052-076-191800- EASTERN NEW YORK CITY SKY/WX TMP DP RH WIND PRES REMARKS ALBANY PTSUNNY 78 58 49 N7 30.04S NEW YORK CITY LGT RAIN 71 63 75 NE16G26 29.99S $$ ANZALL-191800- MARINE OBSERVATIONS STATION/POSITION TIME TEMP WIND PRES VSBY WAVE AIR SEA DIR/SP/G HT/PER (UTC) (F) (DEG/KT/KT) (MB) (MI) (FT/S) BOSTON BUOY 1650 66 69 30/ 17/ 19 1016.6S 4/ 6 BUZZARDS BAY 1600 68 40/ 22/ 25 1015.6F NANTUCKET SOUND 1650 69 76 40/ 17/ 23 1015.2S 2/ 3 MASS BAY-STELLWA 1604 66 66 40/ 17/ 19 1015.8R 1 7/8 5/ 5 ISLE OF SHOALS 1600 64 40/ 16/ 18 1017.5R S OF BLOCK IS 1643 75 N/A 5/ 5 $$ ......................KEY......................... SKY/WX - SKY CONDITION/PRESENT WEATHER TMP - TEMPERATURE IN FAHRENHEIT DWPT - DEWPOINT IN FAHRENHEIT RH - RELATIVE HUMIDITY IN PERCENT WIND - DIRECTION AND SPEED IN MPH PRES - MEAN SEA LEVEL PRESSURE IN INCHES OF HG WCI - WIND CHILL INDEX VSB - VISIBILITY IN MILES HX - HEAT INDEX TC - TEMPERATURE IN CELSIUS VRB - VARIABLE WIND DIRECTION N/A - NOT AVAILABLE

USA.gov is the U.S. government's official web portal to all federal, state and local government web resources and services.